Iowa Falls, IA

8:11 AM CST on February 07, 2016 (GMT -0600)
Iowa Falls Municipal

Weather History for KIFA - October, 2012

Change the Weather History Date:

Tuesday, October 9, 2012

  Actual Average Record
Temperature  
Mean Temperature 44 °F -  
Max Temperature 54 °F 62 °F 87 °F (2010)
Min Temperature 35 °F 39 °F 23 °F (1964)
Degree Days  
Heating Degree Days 20    
Moisture  
Dew Point 35 °F    
Average Humidity 66    
Maximum Humidity 87    
Minimum Humidity 50    
Precipitation  
Precipitation 0.01 in - - ()
Sea Level Pressure  
Sea Level Pressure 29.89 in    
Wind  
Wind Speed 11 mph (West)    
Max Wind Speed 24 mph    
Max Gust Speed 29 mph    
Visibility 10 miles    
Events Rain    
Averages and records for this station are not official NWS values.
T = Trace of Precipitation, MM = Missing Value Source: NWS Daily Summary

Daily Weather History Graph

Daily Weather History Graph

Search for Another Location

Airport or City:

Trip Planner

Search our weather history database for the weather conditions in past years. The results will help you decide how hot, cold, wet, or windy it might be!

Date:

Astronomy

Oct. 09, 2012 Rise Set
Actual Time 7:19 AM CDT 6:39 PM CDT
Civil Twilight 6:51 AM CDT 7:08 PM CDT
Nautical Twilight 6:18 AM CDT 7:40 PM CDT
Astronomical Twilight 5:46 AM CDT 8:13 PM CDT
Moon 12:49 AM CDT (10/9) 3:14 PM CDT (10/9)
Length of Visible Light 12h 16m
Length of Day
11h 20m
Last Quarter, 36% of the Moon is Illuminated
Oct 9
Last Quarter
Oct 15
New
Oct 21
First Quarter
Oct 29
Full
Nov 6
Last Quarter

Hourly Weather History & Observations

Time (CDT) Temp. Windchill Dew Point Humidity Pressure Visibility Wind Dir Wind Speed Gust Speed Precip Events Conditions
12:15 AM 47.5 °F - 31.6 °F 54% 29.86 in 10.0 mi SW 8.1 mph - N/A   Clear
12:35 AM 48.0 °F - 32.0 °F 54% 29.85 in 10.0 mi SSW 9.2 mph - N/A   Clear
12:55 AM 49.8 °F - 32.0 °F 50% 29.85 in 10.0 mi SSW 9.2 mph - N/A   Clear
1:15 AM 46.4 °F 42.4 °F 32.0 °F 57% 29.84 in 10.0 mi SW 8.1 mph - N/A   Clear
1:35 AM 46.8 °F - 32.0 °F 57% 29.84 in 10.0 mi WSW 5.8 mph - N/A   Clear
1:55 AM 45.9 °F 41.7 °F 32.0 °F 58% 29.84 in 10.0 mi SSW 8.1 mph - N/A   Clear
2:35 AM 44.8 °F 39.9 °F 32.0 °F 61% 29.82 in 10.0 mi South 9.2 mph - N/A   Scattered Clouds
2:55 AM 46.6 °F - 32.4 °F 58% 29.81 in 10.0 mi South 9.2 mph - N/A   Scattered Clouds
3:15 AM 48.4 °F - 32.9 °F 55% 29.81 in 10.0 mi South 11.5 mph - N/A   Mostly Cloudy
3:35 AM 48.4 °F - 32.9 °F 55% 29.81 in 10.0 mi South 10.4 mph - N/A   Overcast
3:55 AM 48.6 °F - 33.1 °F 55% 29.80 in 10.0 mi South 10.4 mph - N/A   Mostly Cloudy
4:15 AM 49.1 °F - 33.4 °F 55% 29.79 in 10.0 mi South 11.5 mph - N/A   Mostly Cloudy
4:35 AM 49.3 °F - 33.6 °F 55% 29.79 in 10.0 mi SSW 10.4 mph - N/A   Scattered Clouds
4:55 AM 49.5 °F - 33.4 °F 54% 29.79 in 10.0 mi SSW 11.5 mph - N/A   Clear
5:15 AM 49.3 °F - 33.6 °F 55% 29.79 in 10.0 mi SSW 10.4 mph - N/A   Clear
5:35 AM 48.7 °F - 33.4 °F 56% 29.79 in 10.0 mi SSW 11.5 mph - N/A   Clear
5:55 AM 47.8 °F - 33.4 °F 57% 29.80 in 10.0 mi SW 10.4 mph - N/A   Clear
6:15 AM 47.8 °F - 33.8 °F 58% 29.81 in 10.0 mi SW 11.5 mph - N/A   Clear
6:35 AM 48.4 °F - 33.8 °F 57% 29.81 in 10.0 mi SW 9.2 mph - N/A   Clear
6:55 AM 47.7 °F - 33.8 °F 59% 29.82 in 10.0 mi WSW 8.1 mph - N/A   Clear
7:15 AM 47.5 °F - 33.8 °F 59% 29.82 in 10.0 mi SW 6.9 mph - N/A   Clear
7:35 AM 46.8 °F - 33.8 °F 61% 29.81 in 10.0 mi SW 4.6 mph - N/A   Clear
7:55 AM 46.6 °F - 34.2 °F 62% 29.81 in 10.0 mi WSW 3.5 mph - N/A   Scattered Clouds
8:15 AM 47.5 °F - 34.5 °F 61% 29.82 in 10.0 mi SW 9.2 mph - N/A   Mostly Cloudy
8:35 AM 49.1 °F - 34.5 °F 57% 29.84 in 10.0 mi WSW 11.5 mph - N/A   Overcast
8:55 AM 49.8 °F - 34.7 °F 56% 29.84 in 10.0 mi West 12.7 mph - N/A   Overcast
9:15 AM 50.2 °F - 34.7 °F 55% 29.84 in 10.0 mi West 12.7 mph - N/A   Overcast
9:35 AM 50.9 °F - 35.6 °F 56% 29.84 in 10.0 mi West 9.2 mph - N/A   Overcast
9:55 AM 51.8 °F - 37.0 °F 57% 29.85 in 10.0 mi West 9.2 mph - N/A   Mostly Cloudy
10:15 AM 53.1 °F - 39.6 °F 60% 29.86 in 10.0 mi West 10.4 mph - N/A   Scattered Clouds
10:35 AM 54.0 °F - 41.2 °F 62% 29.86 in 10.0 mi WNW 17.3 mph 23.0 mph N/A   Scattered Clouds
10:55 AM 53.2 °F - 42.8 °F 68% 29.86 in 10.0 mi WNW 20.7 mph 25.3 mph N/A   Mostly Cloudy
11:15 AM 52.2 °F - 43.5 °F 72% 29.88 in 10.0 mi WNW 19.6 mph 26.5 mph N/A   Overcast
11:35 AM 50.9 °F - 43.7 °F 76% 29.89 in 10.0 mi NW 24.2 mph 28.8 mph N/A Rain Rain
11:55 AM 47.1 °F - 42.6 °F 84% 29.89 in 10.0 mi NW 17.3 mph 23.0 mph N/A Rain Light Rain
12:15 PM 46.0 °F 38.8 °F 41.5 °F 84% 29.90 in 7.0 mi NW 18.4 mph 24.2 mph N/A Rain Light Rain
12:35 PM 45.7 °F 39.1 °F 41.9 °F 87% 29.90 in 10.0 mi NW 15.0 mph 23.0 mph N/A Rain Rain
1:15 PM 45.7 °F 39.1 °F 41.7 °F 86% 29.89 in 10.0 mi NW 15.0 mph 18.4 mph N/A Rain Rain
1:35 PM 45.7 °F 39.8 °F 41.9 °F 87% 29.89 in 10.0 mi WNW 12.7 mph - N/A Rain Light Rain
1:55 PM 45.3 °F 38.7 °F 41.0 °F 85% 29.90 in 7.0 mi WNW 15.0 mph - N/A Rain Rain
2:15 PM 45.5 °F 41.3 °F 40.3 °F 82% 29.89 in 10.0 mi West 8.1 mph - N/A Rain Light Rain
2:35 PM 46.0 °F 42.5 °F 41.0 °F 83% 29.89 in 10.0 mi WSW 6.9 mph - N/A   Overcast
2:55 PM 46.8 °F - 41.5 °F 82% 29.89 in 10.0 mi WSW 10.4 mph - N/A   Overcast
3:15 PM 47.3 °F - 41.2 °F 79% 29.91 in 10.0 mi WNW 19.6 mph 25.3 mph N/A   Mostly Cloudy
3:35 PM 46.9 °F - 36.3 °F 67% 29.91 in 10.0 mi West 18.4 mph 26.5 mph N/A   Scattered Clouds
4:15 PM 47.3 °F - 37.9 °F 70% 29.92 in 10.0 mi WNW 12.7 mph - N/A   Scattered Clouds
4:35 PM 47.5 °F - 38.1 °F 70% 29.92 in 10.0 mi West 13.8 mph - N/A   Scattered Clouds
4:55 PM 47.3 °F - 34.9 °F 62% 29.92 in 10.0 mi West 16.1 mph 20.7 mph N/A   Scattered Clouds
5:15 PM 47.3 °F - 33.8 °F 59% 29.92 in 10.0 mi West 11.5 mph - N/A   Clear
5:35 PM 46.8 °F - 34.5 °F 62% 29.92 in 10.0 mi West 11.5 mph - N/A   Scattered Clouds
5:55 PM 46.4 °F 41.1 °F 34.5 °F 63% 29.93 in 10.0 mi West 11.5 mph - N/A   Scattered Clouds
6:15 PM 46.0 °F 41.0 °F 34.3 °F 64% 29.93 in 10.0 mi West 10.4 mph - N/A   Overcast
6:35 PM 45.9 °F 39.4 °F 32.2 °F 59% 29.94 in 10.0 mi NW 15.0 mph - N/A   Mostly Cloudy
6:55 PM 44.1 °F 38.6 °F 32.5 °F 64% 29.95 in 10.0 mi NW 10.4 mph - N/A   Scattered Clouds
7:15 PM 43.0 °F 36.4 °F 32.0 °F 65% 29.96 in 10.0 mi NW 12.7 mph - N/A   Clear
7:35 PM 41.7 °F 36.7 °F 31.8 °F 68% 29.97 in 10.0 mi WNW 8.1 mph - N/A   Clear
7:55 PM 39.6 °F 33.5 °F 31.1 °F 72% 29.97 in 10.0 mi WNW 9.2 mph - N/A   Clear
8:15 PM 38.3 °F 31.4 °F 31.1 °F 75% 29.99 in 10.0 mi West 10.4 mph - N/A   Scattered Clouds
8:35 PM 39.2 °F 32.0 °F 31.8 °F 75% 29.99 in 10.0 mi WNW 11.5 mph - N/A   Mostly Cloudy
8:55 PM 41.4 °F 34.0 °F 32.0 °F 69% 30.01 in 10.0 mi WNW 13.8 mph - N/A   Overcast
9:15 PM 40.6 °F 33.4 °F 32.0 °F 71% 30.01 in 10.0 mi NW 12.7 mph - N/A   Scattered Clouds
9:35 PM 39.2 °F 31.2 °F 31.3 °F 73% 30.02 in 10.0 mi NW 13.8 mph - N/A   Clear
9:55 PM 38.8 °F 30.0 °F 30.2 °F 71% 30.03 in 10.0 mi NW 16.1 mph - N/A   Clear
10:15 PM 37.9 °F 30.5 °F 29.3 °F 71% 30.04 in 10.0 mi NW 11.5 mph - 0.01 in   Clear
10:35 PM 36.7 °F 29.4 °F 29.1 °F 74% 30.05 in 10.0 mi WNW 10.4 mph - 0.01 in   Clear
10:55 PM 35.6 °F 29.2 °F 28.8 °F 76% 30.05 in 10.0 mi NW 8.1 mph - 0.01 in   Clear
11:15 PM 35.1 °F 27.9 °F 28.4 °F 77% 30.05 in 10.0 mi NW 9.2 mph - N/A   Clear
11:35 PM 35.8 °F 27.8 °F 28.4 °F 75% 30.06 in 10.0 mi WNW 11.5 mph - N/A   Clear
11:55 PM 35.6 °F 28.0 °F 28.0 °F 74% 30.06 in 10.0 mi WNW 10.4 mph - N/A   Clear